Regional Weather Roundup
Issued by NWS

Home | Current Version | Previous Version | Text Only | Print | Product List | Glossary Off
Versions: 1 2 3 4 5 6 7 8 9 10 11 12 13 14 15 16 17 18 19 20 21 22 23 24 25 26 27 28 29 30 31 32 33 34 35 36 37 38 39 40 41 42 43 44 45 46 47 48 49 50

618
ASUS43 KMKX 200921
RWRWI

WISCONSIN REGIONAL WEATHER ROUNDUP
NATIONAL WEATHER SERVICE MILWAUKEE/SULLIVAN WI
400 AM CDT THU JUL 20 2017

NOTE: "FAIR" INDICATES FEW OR NO CLOUDS BELOW 12,000 FEET WITH NO
SIGNIFICANT WEATHER AND/OR OBSTRUCTIONS TO VISIBILITY.

WIZ001-002-006>008-014>016-023>028-201000-
NORTHWEST WISCONSIN

CITY           SKY/WX    TMP DP  RH WIND       PRES   REMARKS
SUPERIOR ARPT  NOT AVBL
ASHLAND        CLEAR     59  57  93 SW7       29.92R
HAYWARD        FOG       54  53  97 NE3       29.95S VSB 3/4
SIREN          CLEAR     61  60  96 CALM      29.95F
CUMBERLAND     CLEAR     61  61 100 CALM      29.96R
RICE LAKE      CLEAR     61  60  97 CALM      29.97R
CHETEK         CLEAR     63  63 100 CALM      29.95R
LADYSMITH      CLEAR     64  61  91 S7        29.98R
EAU CLAIRE     CLOUDY    69  68  96 CALM      29.94R
MENOMONIE      PTCLDY    67  67  99 CALM      29.95R FOG
NEW RICHMOND   FOG       63  63  99 CALM      29.95S VSB 1/4
OSCEOLA        CLEAR     63  63 100 S5        29.98R
$$

WIZ003>005-009-010-017-018-201000-
NORTH CENTRAL WISCONSIN

CITY           SKY/WX    TMP DP  RH WIND       PRES   REMARKS
MANITOWISH WTR CLEAR     56  56 100 CALM      29.94S
ARBOR VITAE    CLEAR     59  57  93 CALM      29.93F
WOODRUFF       CLEAR     59  57  93 CALM      29.93F
RHINELANDER    CLEAR     58  58 100 W5        29.95S
EAGLE RIVER    CLEAR     56  56 100 CALM      29.93F
LAND O LAKES   FOG       55  55 100 CALM      29.95S VSB 3/4
PHILLIPS       CLEAR     59  59 100 CALM      29.95R
TOMAHAWK         N/A     56  55  96 CALM      29.96R FOG
MEDFORD        CLOUDY    65  64  97 SW5       29.96R
MERRILL        CLOUDY    62  62 100 CALM      29.97R
$$

WIZ029-030-035-036-043>047-201000-
CENTRAL WISCONSIN

CITY           SKY/WX    TMP DP  RH WIND       PRES   REMARKS
WAUSAU         CLOUDY    68  66  93 SW7       29.95R
MOSINEE        CLOUDY    66  64  94 SW9       29.98R
MARSHFIELD     CLOUDY    67  65  93 SW8       29.97R
STEVENS POINT  CLOUDY    66  66 100 W9        29.97R
WAUPACA        CLOUDY    69  68  96 W9        29.96R
WAUTOMA        RAIN      67  66  97 SW14      29.97R
WISC RAPIDS    CLOUDY    68  67  96 SW7       29.98R
CAMP DOUGLAS   LGT RAIN  68  68 100 W5        29.98R
$$

WIZ011>013-019>022-031-037>040-048>050-201000-
NORTHEAST WISCONSIN

CITY           SKY/WX    TMP DP  RH WIND       PRES   REMARKS
ANTIGO         CLOUDY    65  64  95 W8        29.96R
SHAWANO        CLOUDY    70  65  83 W6        29.93R
OCONTO         CLOUDY    66  60  80 SW6       29.89S
STURGEON BAY     N/A     68  61  78 SW8       29.89S
GREEN BAY      CLOUDY    70  67  90 W9        29.92S
MANITOWOC      CLOUDY    71  66  84 W12       29.92F
APPLETON       CLOUDY    66  66 100 W9        29.92R
CLINTONVILLE   CLOUDY    70  64  83 W8        29.93R
OSHKOSH        CLOUDY    68  66  93 VRB7      29.91F
$$

WIZ032>034-041-042-053>061-201000-
SOUTHWEST WISCONSIN

CITY           SKY/WX    TMP DP  RH WIND       PRES   REMARKS
LA CROSSE      LGT RAIN  71  70  96 S6        29.98R
SPARTA         CLOUDY    65  65  99 NW3       30.00F
VIROQUA        CLOUDY    66  66 100 SE7G21    30.02S
BOSCOBEL       TSTM      68  67  96 VRB7G22   30.03R FOG
PRAIRIE DU CHI CLOUDY    69  65  86 SE8       29.92F
PLATTEVILLE    CLOUDY    67  67 100 E16       29.99F
$$

WIZ056-057-062-063-064-067-068-201000-
SOUTH CENTRAL WISCONSIN

CITY           SKY/WX    TMP DP  RH WIND       PRES   REMARKS
REEDSBURG      RAIN      65  65 100 S6        30.00F
BARABOO/DELLS  TSTM      66  64  94 S10       30.03R
LONE ROCK      TSTM      67  66  97 E13       30.01R VSB 3/4
MINERAL POINT  CLOUDY    68  68 100 E13G18    29.98R
MADISON        LGT RAIN  68  66  93 CALM      29.99R FOG
MIDDLETON      CLOUDY    68  67  98 CALM      30.03R
WATERTOWN      CLOUDY    67  67 100 CALM      29.98F
MONROE         TSTM      64  64 100 NE10      30.05R
JANESVILLE     HVY RAIN  68  68 100 NE5       30.00R
$$

WIZ051-052-058>065-066-070>072-201000-
SOUTHEAST WISCONSIN

CITY           SKY/WX    TMP DP  RH WIND       PRES   REMARKS
MILWAUKEE      LGT RAIN  72  68  87 S8        29.97F
WAUKESHA       CLOUDY    66  64  94 W7        29.99F
MILWAUKEE/TIMM RAIN      68  63  83 NW7       29.99F
RACINE         CLOUDY    70  68  93 W3        30.02R
KENOSHA        LGT RAIN  70  67  90 NW6       30.02R
FOND DU LAC    LGT RAIN  68  65  90 SW14G20   29.93F
SHEBOYGAN      LGT RAIN  69  68  96 SW9       29.91F
WEST BEND      CLOUDY    68  66  94 SW5       29.95F
JUNEAU         CLOUDY    67  65  96 CALM      29.97F
$$

LSZ147-162-201000-
LAKE SUPERIOR

STATION/POSITION TIME  TEMP    WIND        PRES    WAVE
                       AIR SEA DIR/SP/G            HT/PER
                 (UTC) (F)     (DEG/KT/KT) (MB)    (FT/S)
W MID LAKE BUOY  0850   53 47  290/  2/  2 1011.8S   0
DEVILS ISLAND    0900   59     220/  8/  9 1012.9R
SAXON HARBOR     0830   62     200/  7/  9 1012.2S
$$

LMZ867-665-643>646-201000-
LAKE MICHIGAN

STATION/POSITION TIME  TEMP    WIND        PRES    WAVE
                       AIR SEA DIR/SP/G            HT/PER
                 (UTC) (F)     (DEG/KT/KT) (MB)    (FT/S)
CHAMBERS ISLAND  0840   68     190/  5/  8 1011.2S
S GREEN BAY BUOY 0900   72 71  220/ 14/ 17 1012.0
N MID LAKE BUOY  0850   67 65  160/  6/  6 1012.8F   0
NORTHPORT PIER   0840   67     130/  2/  5 1012.2R
KEWAUNEE LAKESHO 0854   69     230/  4/  7 1012.0F
SHEBOYGAN LAKESH 0900   70      10/  7/  9 1012.7F
PORT WASHINGTON  0830   71     280/  9/ 14 1015.6R
ATWATER BUOY     0809   71 68  280/  4/  4 1015.3R
MILWAUKEE LAKESH 0900   71     280/  7/  8   N/A
S MID LAKE BUOY  0850   69 69  270/  8/  8 1015.5S   3/ 4
KENOSHA   LAKESH 0900   70     290/  6/ 10 1015.9
$$

TC  - TEMPERATURE IN CELSIUS
VSB - VISIBILITY IN STATUTE MILES
WCI - WIND CHILL INDEX
HX  - HEAT INDEX





USA.gov is the U.S. government's official web portal to all federal, state and local government web resources and services.